This is the latest recevied weather packets stored in our database for station/object IW2NIA-3. If no packets are shown the sender has not sent any weather packets the latest 10 day(s).
| Time | Temp. | Humidity | Pressure | Rain* | Wind** | Luminosity | Snow |
|---|---|---|---|---|---|---|---|
| 1777963720 | 12.78° C | 91% | 1012.2 hPa | 7.37 mm | - | - | - |
| 1777962816 | 12.22° C | 90% | 1012.3 hPa | 5.33 mm | - | - | - |
| 1777961926 | 12.78° C | 90% | 1012.5 hPa | 2.54 mm | - | - | - |
| 1777961019 | 12.78° C | 89% | 1012.4 hPa | 1.02 mm | - | - | - |
| 1777960121 | 12.78° C | 89% | 1011.9 hPa | 0.51 mm | - | - | - |
| 1777959216 | 12.78° C | 88% | 1011.9 hPa | 0.25 mm | - | - | - |
| 1777958307 | 12.78° C | 87% | 1011.6 hPa | 0.25 mm | - | - | - |
| 1777957420 | 12.78° C | 86% | 1011.6 hPa | 0 mm | - | - | - |
| 1777956522 | 13.33° C | 85% | 1011.5 hPa | 0 mm | - | - | - |
| 1777955618 | 13.33° C | 84% | 1011.4 hPa | 0 mm | - | - | - |
| 1777954712 | 13.33° C | 83% | 1011.3 hPa | 0 mm | - | - | - |
| 1777953805 | 13.33° C | 82% | 1011.4 hPa | 0 mm | - | - | - |
| 1777952908 | 13.33° C | 81% | 1011.5 hPa | 0 mm | - | - | - |
| 1777952024 | 13.33° C | 79% | 1011.6 hPa | 0 mm | - | - | - |
| 1777951118 | 13.89° C | 78% | 1011.7 hPa | 0 mm | - | - | - |
| 1777950215 | 13.89° C | 77% | 1011.7 hPa | 0 mm | - | - | - |
| 1777949325 | 14.44° C | 75% | 1011.9 hPa | 0 mm | - | - | - |
| 1777948421 | 14.44° C | 74% | 1012 hPa | 0 mm | - | - | - |
| 1777947511 | 14.44° C | 74% | 1012.1 hPa | 0 mm | - | - | - |
| 1777946623 | 14.44° C | 73% | 1012.4 hPa | 0 mm | - | - | - |
| 1777945725 | 14.44° C | 72% | 1012.5 hPa | 0 mm | - | - | - |
| 1777944819 | 14.44° C | 72% | 1012.8 hPa | 0 mm | - | - | - |
| 1777943918 | 14.44° C | 72% | 1012.9 hPa | 0 mm | - | - | - |
| 1777943012 | 14.44° C | 71% | 1013.1 hPa | 0 mm | - | - | - |
| 1777942107 | 14.44° C | 73% | 1013.4 hPa | 0 mm | - | - | - |
* Rain latest hour (hover to see other rain measurements)
** Current wind speed in m/s (hover to see current wind gust speed)